Dewpoint
-4 -2 -1 -3 -2 -2 -2 -1 -0 -2 -3 -4 -3 -4 -5 -3 -3 -3 -3 -2 -2 -1 -1 -1 -1 -1 -2 -2 -3 -4 -4 -5 -5 -4 -4 -3 -4 -4 -4 -5 -6 -7 -9 -10
-3 -1 -3 -4 -3 -2 -1 -1 -1 -2 -2 -4 -4 -3 -5 -3 -3 -3 -3 -3 -2 -1 -1 -1 -1 -1 -2 -3 -3 -4 -4 -5 -5 -5 -5 -4 -4 -4 -4 -5 -6 -8 -9 -10
-3 -5 -5 -4 -4 -3 -4 -2 -2 -1 -3 -4 -3 -2 -3 -5 -4 -4 -4 -4 -3 -2 -1 -1 -1 -1 -2 -2 -3 -4 -4 -5 -5 -6 -5 -4 -3 -3 -4 -6 -7 -8 -9 -9
-5 -6 -5 -5 -5 -6 -4 -5 -2 -3 -3 -0 -4 1 -3 -4 -5 -5 -4 -4 -4 -3 -2 -1 -1 -1 -2 -2 -3 -3 -4 -4 -5 -6 -5 -3 -3 -4 -6 -7 -8 -9 -9 -10
-3 -4 -5 -4 -4 -6 -4 -3 -3 -3 -3 -2 -2 -1 -3 -6 -6 -4 -2 -4 -3 -2 -1 -1 -1 -2 -2 -3 -3 -3 -3 -4 -5 -6 -6 -6 -6 -6 -6 -6 -7 -8 -10 -11
-4 -6 -6 -5 -6 -5 -5 -4 -3 -2 -2 1 -1 -2 -2 -4 -2 -1 -1 -2 -3 -2 -1 -1 -1 -2 -2 -2 -2 -3 -4 -4 -5 -6 -5 -6 -6 -7 -7 -7 -8 -10 -12 -13
-3 -4 -5 -6 -4 -6 -5 -3 1 0 1 2 -3 -1 -2 -2 0 0 -0 -1 -1 -1 -1 -1 -1 -2 -2 -2 -2 -3 -4 -4 -5 -5 -6 -6 -6 -6 -7 -8 -10 -12 -14 -15
-2 -1 -4 -6 -4 -4 -3 -3 1 2 1 -1 -4 -2 -6 0 -1 -2 -2 -1 -1 -1 -1 -1 -2 -2 -2 -2 -3 -3 -4 -4 -5 -5 -6 -6 -6 -7 -8 -10 -13 -15 -16 -16
-2 -4 -9 -8 -7 -5 -3 -1 -4 -1 -2 -0 -2 -5 -3 -0 -1 -3 -3 -2 -2 -1 -1 -1 -2 -2 -2 -2 -3 -4 -4 -4 -5 -5 -6 -6 -6 -7 -9 -13 -15 -16 -16 -17
-4 -4 -8 -10 -9 -9 -5 -5 -2 -2 -0 0 -3 -4 -4 -0 -0 -1 -2 -3 -2 -2 -1 -1 -2 -2 -2 -3 -4 -4 -4 -4 -5 -5 -5 -6 -7 -8 -12 -15 -16 -17 -17 -18
-6 -6 -6 -10 -9 -7 -7 -5 -5 -3 -2 -0 0 -1 -4 -5 -1 -0 -1 -3 -3 -2 -2 -1 -2 -2 -3 -3 -4 -4 -4 -4 -5 -5 -6 -6 -8 -10 -14 -16 -16 -17 -20 -30
-7 -6 -6 -8 -9 -8 -9 -8 -5 -1 1 1 1 -1 -5 0 -1 -0 -1 -3 -3 -3 -2 -2 -2 -3 -3 -3 -3 -4 -4 -4 -5 -6 -6 -7 -9 -12 -14 -16 -18 -21 -32 -32
-4 -3 -1 -7 -10 -6 -5 -6 -6 -4 -3 -3 -0 -1 -4 -1 -1 -1 -1 -2 -3 -3 -3 -3 -3 -3 -3 -3 -4 -4 -4 -6 -7 -7 -7 -9 -12 -13 -15 -18 -25 -30 -32 -31
-5 -3 -3 -2 -5 -4 -5 -5 -6 -6 -1 -2 -4 -4 -5 -3 -3 -3 -0 -2 -2 -2 -3 -3 -3 -3 -3 -3 -4 -4 -6 -8 -8 -8 -9 -12 -12 -13 -17 -24 -30 -31 -31 -29
-5 -2 -3 -5 -6 -3 -5 -5 -5 -4 -5 -3 -6 -5 -6 -4 -3 -5 -7 -6 -5 -4 -1 -2 -3 -3 -3 -4 -3 -4 -8 -5 -8 -9 -11 -13 -13 -15 -20 -26 -28 -29 -29 -28
-4 -3 -5 -4 -5 -3 -3 -5 -4 -3 -3 -2 -2 -2 -4 -4 -5 -4 -5 -5 -5 -4 -3 -2 -2 -3 -3 -3 -3 -6 -4 -8 -10 -10 -13 -14 -14 -16 -21 -23 -25 -26 -26 -26
-1 -2 -1 -2 -4 -2 1 -1 -2 -2 -1 -1 -1 -3 -4 -3 -3 -3 -3 -2 -2 -1 -2 -2 -2 -2 -3 -3 -4 -3 -5 -9 -6 -12 -14 -15 -15 -16 -20 -21 -23 -23 -23 -23
-0 0 0 -0 0 3 -2 -5 -4 -1 -2 -2 -3 -3 -3 -3 -3 -0 -0 0 0 0 -0 -1 -2 -2 -3 -3 -6 -2 -8 -3 -10 -12 -14 -16 -16 -16 -19 -21 -21 -21 -21 -20
-1 -1 -1 1 2 -2 -3 -6 -6 -4 -2 -4 -3 -3 -2 0 2 -1 -2 -1 -0 1 0 -0 -1 -2 -3 -4 -3 -3 -3 -7 -10 -13 -16 -17 -16 -18 -19 -21 -21 -20 -20 -19
-3 -1 0 2 2 -0 -5 -5 -3 -4 -0 -4 -1 -1 -2 1 1 -1 -1 0 1 1 0 -0 -1 -2 -3 -3 -1 -3 -4 -9 -11 -13 -17 -17 -17 -19 -20 -20 -20 -19 -19 -18
1 1 2 2 2 0 -4 -6 -3 -0 -2 -2 0 -0 -1 0 -0 -1 1 1 1 1 0 -0 -1 -2 -2 0 -3 -2 -7 -10 -13 -14 -17 -16 -17 -18 -20 -19 -18 -18 -18 -18
-2 1 1 1 2 2 -2 -3 -1 -2 -1 -0 -0 -0 0 0 -0 -0 0 1 1 1 0 -0 -1 -1 -1 -2 -3 -5 -9 -11 -13 -15 -16 -17 -16 -17 -17 -17 -17 -16 -16 -18
-2 -1 1 1 0 0 0 0 0 0 -0 -1 -0 -0 0 1 -0 -1 -0 1 1 1 0 0 -0 -1 -2 -2 -4 -8 -9 -11 -13 -13 -15 -16 -17 -17 -16 -16 -16 -16 -17 -18
1 1 3 2 2 -1 -2 -1 -0 -1 -1 -1 -1 0 2 2 -0 -1 -0 1 1 1 0 -0 -1 -1 -1 -4 -7 -8 -9 -12 -13 -14 -14 -16 -17 -17 -16 -16 -16 -16 -18 -20
0 1 1 2 -1 -1 -0 -1 -1 -5 -5 -3 -1 1 1 1 -1 -1 -1 0 1 1 -1 -2 -2 -3 -4 -6 -7 -8 -9 -11 -13 -14 -15 -16 -17 -17 -16 -16 -16 -20 -22 -24
-1 -1 0 -1 -3 -1 -1 -2 -3 -6 -3 -1 2 1 0 0 0 -1 -1 -0 0 -0 -2 -3 -4 -5 -6 -6 -7 -8 -9 -11 -13 -14 -15 -17 -17 -19 -19 -20 -22 -25 -25 -26
Wind_Speed
2 2 8 9 6 2 1 3 5 6 6 4 6 4 5 9 13 12 15 23 26 26 24 22 21 17 14 9 5 4 5 7 8 9 9 9 8 9 9 11 12 13 13 14
1 7 8 5 4 5 4 5 7 7 6 3 4 7 9 7 10 30 26 23 28 28 27 27 24 21 15 9 6 4 4 6 8 9 9 10 8 7 8 10 12 12 12 13
7 4 5 6 5 4 5 5 4 8 3 2 4 6 6 4 9 5 16 20 27 33 34 31 29 24 17 10 5 5 5 5 7 8 10 10 8 7 8 9 10 11 13 14
7 7 9 11 6 7 7 8 9 4 2 4 1 7 4 6 5 3 10 19 27 34 35 34 31 25 17 12 10 8 6 4 5 6 7 8 7 7 7 7 8 9 10 12
8 1 3 3 6 7 6 5 6 3 3 1 1 3 1 2 4 3 4 5 21 29 34 35 30 23 16 13 12 9 6 5 3 4 5 4 4 4 6 7 8 9 11 12
5 4 3 5 3 2 3 3 4 4 3 4 8 8 4 3 2 1 1 2 13 23 29 32 26 21 17 18 14 10 6 4 4 3 3 3 3 3 5 6 7 7 10 11
5 5 6 10 6 3 3 4 3 2 1 6 2 2 6 3 1 2 7 5 14 21 27 31 30 24 21 21 15 9 6 5 5 4 3 2 2 2 2 5 7 8 9 9
3 7 3 2 16 8 8 9 5 5 4 3 1 5 5 1 1 3 0 10 15 20 25 33 30 26 26 20 13 10 8 7 6 5 4 2 2 2 3 6 7 7 9 10
3 5 3 3 3 8 4 5 8 2 2 2 4 5 3 1 3 2 4 11 16 21 26 32 32 30 25 19 14 12 10 8 7 5 3 3 1 1 3 5 6 7 8 9
4 5 3 5 1 1 4 5 3 0 4 4 4 4 5 4 7 5 7 15 17 21 26 33 34 30 24 19 16 13 11 9 7 6 5 4 2 2 3 4 4 6 8 10
2 4 7 3 2 0 3 0 4 3 2 2 2 5 5 6 7 10 11 19 22 25 29 36 33 27 23 21 18 15 13 11 9 7 6 4 3 1 2 3 5 6 8 9
6 2 3 6 4 3 1 2 3 3 4 2 2 8 3 6 4 7 14 20 21 23 29 34 32 28 26 23 20 17 14 11 10 9 8 6 5 3 3 5 6 8 9 11
6 4 4 7 3 4 4 2 4 4 2 3 3 9 1 5 3 7 15 18 20 24 29 32 32 32 30 26 22 18 14 12 11 12 10 9 7 6 5 6 8 10 11 11
15 3 7 7 5 1 5 2 3 4 2 3 10 12 11 10 9 12 14 19 25 25 32 35 36 36 32 27 23 19 16 14 11 14 11 11 10 9 8 8 10 10 11 11
5 9 9 15 15 5 6 7 8 7 6 7 21 18 7 7 9 20 28 32 29 27 32 38 41 40 34 29 24 21 18 14 16 15 14 14 13 11 10 11 10 10 10 10
1 5 3 7 9 9 12 7 7 11 15 13 21 23 14 24 25 23 29 28 23 22 28 32 38 40 37 31 26 23 19 19 18 17 16 16 15 14 12 11 11 9 9 7
2 3 3 14 6 7 9 7 12 6 4 7 12 12 8 8 8 16 23 21 23 24 24 27 33 36 37 32 27 24 21 22 19 19 19 18 17 15 14 12 11 9 7 4
6 4 3 5 4 11 5 3 5 6 7 11 14 13 13 13 20 21 18 17 17 16 19 22 22 28 35 31 29 22 23 20 22 22 21 20 18 17 16 14 12 9 6 4
10 8 6 6 10 13 8 9 4 6 7 10 11 9 6 6 9 16 9 12 14 11 11 11 14 26 34 31 26 22 25 24 24 23 22 21 19 18 17 15 12 10 7 4
7 2 5 3 4 7 3 3 2 3 9 6 3 2 2 2 4 5 12 13 8 5 7 10 14 23 29 27 23 27 26 27 25 24 21 20 19 17 16 14 12 10 8 4
2 1 9 10 6 5 6 7 3 4 7 4 2 7 6 4 7 14 15 11 8 8 10 12 15 21 25 23 26 27 27 27 22 21 20 20 18 16 15 14 12 10 8 5
4 4 4 3 4 7 8 2 6 4 5 12 15 17 15 18 15 14 12 9 10 10 13 15 17 22 22 25 26 27 27 22 22 21 20 20 18 18 16 15 13 12 9 7
3 5 2 5 3 6 16 14 17 13 18 25 23 22 17 19 14 12 10 9 10 12 14 16 18 19 22 24 25 26 23 23 22 21 20 19 19 19 18 17 15 14 12 10
3 3 2 1 2 10 26 26 28 21 20 23 21 22 19 19 14 12 10 10 13 16 15 15 19 21 24 25 24 20 21 22 21 20 20 20 20 20 19 19 17 16 14 12
5 6 5 5 14 19 24 26 14 24 26 25 24 21 19 16 15 12 11 11 15 15 15 15 17 20 22 23 23 23 21 21 21 21 22 21 21 21 20 20 18 15 15 14
8 6 4 6 13 12 13 17 23 33 29 23 21 21 19 17 16 12 11 11 14 16 17 17 17 19 20 21 22 23 22 21 21 23 24 23 22 22 21 19 18 17 16 14
Wind_Direction
166 135 218 213 207 204 317 238 256 272 256 243 241 257 270 210 211 209 196 198 196 196 194 195 194 196 200 200 199 211 231 243 248 254 260 268 279 295 308 319 325 330 334 338
15 232 231 207 204 236 235 263 269 280 256 200 268 266 271 175 217 217 214 201 196 193 192 193 195 195 196 197 196 217 234 246 259 265 265 260 267 278 296 314 323 329 333 338
197 218 120 173 202 224 231 217 239 240 296 292 333 279 236 225 232 237 227 229 211 205 198 195 192 190 186 184 206 225 228 235 244 247 247 243 254 275 294 309 320 329 339 346
246 242 237 246 229 187 249 211 229 209 145 239 45 284 227 225 220 165 190 203 209 208 206 198 191 183 177 185 208 217 227 235 240 240 239 241 253 278 289 306 323 331 339 346
244 226 204 198 226 179 251 189 187 172 195 20 230 287 79 49 197 148 77 252 215 208 203 195 189 181 175 198 210 212 224 210 218 223 231 247 268 281 301 332 350 346 349 348
269 284 214 216 273 193 94 66 48 56 103 260 190 194 261 187 171 262 352 346 199 200 199 196 186 178 184 203 205 206 202 210 202 219 225 245 269 290 321 335 345 349 352 354
323 248 231 203 253 322 145 92 307 305 169 244 320 190 249 183 310 287 300 190 179 194 198 192 185 179 199 201 192 197 210 218 215 218 225 246 276 306 330 339 352 357 4 8
272 321 183 208 214 205 203 165 186 216 208 271 336 238 261 225 311 315 319 184 184 193 200 196 191 195 203 195 192 207 213 220 214 221 228 238 267 330 345 351 1 5 16 22
215 263 302 213 238 175 210 182 215 220 74 39 236 296 292 208 267 256 196 190 197 199 198 193 195 206 202 198 204 212 215 216 217 219 228 236 253 330 356 2 17 26 31 33
248 289 248 280 190 24 184 163 119 34 192 227 270 270 241 265 244 224 221 214 210 206 201 197 203 207 201 202 207 209 216 223 221 217 217 218 250 315 5 30 42 50 43 40
225 165 272 344 343 342 8 74 56 132 87 258 259 258 215 242 220 213 223 222 217 212 205 204 207 207 204 204 206 212 216 217 216 212 215 218 234 239 75 79 73 65 57 60
327 172 283 245 318 289 49 38 100 144 253 166 175 265 308 285 266 240 248 229 225 223 215 212 211 208 203 204 208 212 213 213 218 213 206 213 213 184 135 102 92 87 82 76
332 357 342 331 340 18 54 50 108 100 76 217 183 264 295 339 318 268 247 244 239 230 222 217 213 210 206 205 206 209 208 209 211 210 203 203 195 164 140 119 112 109 88 83
179 199 274 272 265 211 269 198 151 125 157 239 243 283 262 267 274 277 261 263 260 246 232 223 216 213 208 205 206 206 204 201 212 206 199 193 183 165 151 132 124 117 101 88
167 241 243 269 274 229 235 219 192 200 211 224 275 258 287 242 246 260 275 281 277 260 236 230 220 212 205 202 204 202 202 207 206 194 193 184 179 172 160 144 131 125 112 94
197 214 216 279 285 243 259 238 215 226 239 244 260 267 279 268 264 267 273 276 267 257 243 232 224 215 205 204 205 201 206 203 190 193 187 183 182 176 166 153 145 134 116 100
222 240 218 266 274 288 267 197 227 219 197 223 256 264 256 275 254 255 275 275 267 260 244 232 226 216 208 206 205 206 198 192 190 190 188 185 183 181 171 165 159 148 129 127
216 204 201 277 309 249 247 198 225 239 243 246 266 268 256 262 291 290 284 282 287 269 247 231 227 213 205 204 199 199 196 202 190 189 191 189 186 184 178 174 171 162 162 164
211 243 266 255 244 273 286 270 235 194 268 252 242 266 274 313 307 299 322 297 291 270 243 237 225 207 199 200 199 191 201 194 191 194 193 191 188 186 182 180 180 179 189 186
231 178 215 221 248 261 192 154 84 132 293 295 203 321 333 36 348 276 330 324 292 248 216 208 192 191 196 196 199 197 199 193 196 196 194 191 191 190 187 186 189 190 200 201
117 122 226 237 253 281 245 230 149 209 254 322 315 309 297 210 242 294 304 300 249 218 198 188 183 182 189 201 199 200 198 199 196 194 192 194 194 193 194 195 201 207 211 221
214 192 205 218 229 265 352 359 187 214 300 298 287 288 276 286 286 288 288 262 229 206 191 186 186 189 200 199 200 197 197 194 195 194 196 197 197 198 201 206 212 217 223 236
249 196 199 201 236 314 313 287 288 301 302 302 302 299 285 280 280 285 272 242 216 204 195 194 193 199 199 199 199 196 190 194 194 197 200 202 204 205 207 214 220 227 236 247
283 349 202 23 149 271 288 304 289 294 308 317 313 303 286 274 273 275 258 227 211 204 203 198 194 197 196 193 195 198 196 197 198 202 204 208 211 212 214 217 223 233 242 251
217 156 195 236 264 271 256 256 284 322 316 308 307 306 291 279 270 268 250 225 212 208 197 194 196 196 193 194 196 196 202 204 204 206 208 211 214 218 224 228 234 239 243 247
192 202 189 245 237 243 271 284 306 312 304 300 302 301 307 287 265 261 246 225 217 210 199 196 196 197 198 202 203 205 207 210 213 214 214 216 218 222 225 229 234 240 246 251
Height
1496 1502 1503 1499 1499 1498 1500 1502 1502 1494 1488 1489 1486 1487 1483 1484 1487 1488 1488 1491 1496 1499 1502 1505 1506 1510 1512 1515 1516 1517 1517 1516 1515 1516 1516 1516 1516 1515 1514 1515 1515 1514 1511 1509
1499 1500 1492 1492 1495 1498 1499 1501 1501 1492 1484 1486 1484 1484 1479 1479 1479 1477 1480 1486 1490 1495 1498 1501 1503 1506 1510 1514 1515 1515 1516 1516 1514 1514 1514 1515 1513 1512 1512 1513 1513 1513 1510 1507
1497 1491 1487 1489 1492 1496 1497 1498 1496 1494 1486 1484 1485 1482 1476 1473 1473 1474 1479 1482 1486 1487 1491 1495 1498 1503 1508 1512 1513 1513 1514 1514 1513 1513 1513 1513 1512 1512 1511 1511 1511 1511 1509 1507
1491 1485 1486 1488 1491 1492 1496 1486 1487 1487 1492 1499 1485 1491 1474 1471 1470 1472 1475 1476 1478 1482 1487 1491 1494 1500 1506 1509 1509 1510 1511 1512 1512 1512 1513 1512 1510 1510 1511 1510 1510 1509 1507 1505
1489 1483 1484 1487 1486 1483 1485 1478 1483 1485 1491 1493 1492 1497 1471 1470 1471 1472 1474 1474 1477 1481 1485 1488 1493 1500 1505 1506 1506 1508 1509 1509 1510 1511 1511 1510 1509 1510 1509 1509 1510 1510 1506 1505
1484 1482 1483 1483 1480 1480 1480 1482 1488 1493 1498 1507 1491 1490 1477 1477 1472 1475 1475 1474 1475 1479 1483 1488 1495 1500 1502 1501 1503 1506 1507 1509 1509 1510 1510 1509 1509 1508 1507 1508 1509 1506 1504 1504
1486 1479 1475 1478 1483 1480 1482 1490 1504 1503 1507 1495 1485 1491 1474 1472 1475 1476 1476 1475 1475 1478 1482 1487 1491 1495 1497 1498 1500 1504 1505 1507 1508 1508 1508 1508 1507 1507 1505 1507 1507 1507 1504 1501
1495 1490 1476 1472 1474 1477 1482 1487 1502 1496 1501 1495 1485 1489 1474 1474 1475 1474 1474 1474 1474 1476 1479 1483 1490 1492 1493 1496 1500 1503 1504 1506 1507 1507 1507 1507 1507 1507 1506 1505 1504 1504 1502 1500
1492 1486 1470 1470 1468 1471 1476 1483 1474 1486 1494 1504 1488 1479 1474 1475 1474 1474 1474 1474 1475 1476 1479 1484 1487 1489 1492 1495 1498 1500 1502 1504 1505 1505 1506 1507 1506 1506 1504 1504 1503 1502 1501 1500
1481 1488 1471 1469 1468 1469 1468 1470 1479 1487 1489 1496 1489 1486 1482 1472 1470 1473 1473 1472 1474 1476 1478 1482 1483 1486 1490 1493 1496 1499 1502 1503 1503 1505 1505 1504 1505 1506 1504 1503 1503 1502 1501 1500
1480 1485 1477 1471 1472 1471 1473 1472 1476 1479 1485 1483 1501 1493 1472 1468 1467 1467 1466 1468 1470 1472 1474 1477 1481 1486 1490 1492 1494 1498 1500 1501 1501 1502 1504 1503 1504 1504 1503 1503 1503 1502 1501 1500
1485 1484 1486 1479 1472 1472 1469 1472 1473 1485 1488 1494 1509 1494 1466 1466 1465 1465 1466 1466 1468 1469 1471 1474 1479 1483 1486 1489 1492 1495 1497 1498 1500 1500 1500 1502 1503 1503 1503 1502 1502 1502 1502 1501
1491 1488 1495 1482 1476 1473 1476 1477 1478 1484 1490 1485 1499 1480 1466 1464 1463 1462 1462 1463 1464 1465 1466 1470 1475 1478 1481 1485 1489 1492 1494 1496 1498 1499 1498 1500 1501 1502 1502 1502 1502 1503 1503 1503
1485 1491 1494 1494 1485 1482 1480 1476 1477 1482 1499 1491 1482 1479 1466 1467 1465 1460 1459 1458 1457 1458 1459 1462 1467 1471 1476 1481 1485 1487 1490 1492 1492 1495 1497 1498 1500 1500 1501 1502 1503 1504 1504 1504
1479 1483 1486 1485 1482 1479 1475 1473 1474 1479 1480 1483 1461 1466 1459 1462 1459 1455 1453 1452 1451 1451 1451 1453 1458 1464 1471 1477 1480 1483 1486 1488 1489 1492 1495 1497 1499 1500 1501 1502 1503 1504 1505 1505
1481 1483 1483 1482 1478 1476 1472 1471 1472 1471 1468 1467 1460 1456 1456 1453 1451 1449 1446 1445 1444 1443 1444 1448 1452 1459 1464 1470 1475 1479 1482 1484 1487 1490 1493 1496 1498 1499 1500 1501 1503 1504 1505 1506
1481 1481 1481 1476 1473 1474 1478 1468 1463 1459 1459 1459 1459 1450 1449 1447 1445 1443 1440 1439 1438 1438 1440 1441 1444 1451 1458 1465 1470 1474 1477 1481 1485 1488 1491 1493 1496 1498 1499 1500 1502 1504 1505 1506
1475 1478 1477 1475 1475 1476 1458 1455 1455 1458 1456 1453 1448 1446 1442 1440 1438 1436 1435 1434 1433 1433 1435 1437 1440 1445 1453 1460 1465 1470 1474 1478 1482 1486 1489 1491 1494 1496 1497 1499 1501 1503 1504 1506
1472 1471 1472 1481 1476 1459 1456 1451 1451 1453 1448 1441 1440 1437 1437 1437 1436 1431 1431 1431 1430 1431 1432 1433 1437 1441 1449 1455 1461 1466 1470 1474 1478 1482 1485 1488 1491 1494 1496 1497 1500 1501 1503 1505
1464 1468 1471 1479 1471 1464 1447 1444 1445 1446 1447 1435 1434 1434 1436 1437 1441 1434 1431 1430 1430 1430 1430 1431 1434 1439 1447 1453 1457 1461 1466 1471 1474 1479 1483 1486 1490 1492 1494 1497 1499 1500 1502 1503
1466 1471 1469 1464 1463 1457 1443 1440 1443 1452 1447 1435 1434 1435 1435 1437 1434 1432 1431 1431 1431 1430 1430 1431 1434 1438 1444 1449 1453 1457 1462 1466 1472 1477 1481 1485 1488 1491 1494 1496 1498 1500 1501 1502
1458 1464 1470 1466 1463 1460 1443 1442 1444 1439 1435 1435 1434 1433 1432 1431 1429 1429 1428 1428 1429 1429 1430 1432 1435 1439 1442 1446 1450 1455 1459 1465 1470 1474 1479 1483 1486 1489 1492 1495 1497 1499 1500 1501
1465 1453 1456 1456 1454 1446 1444 1442 1438 1436 1435 1432 1431 1429 1429 1430 1427 1426 1425 1424 1426 1428 1429 1431 1434 1437 1441 1445 1450 1453 1458 1462 1467 1472 1476 1480 1483 1486 1489 1492 1495 1497 1498 1500
1451 1448 1452 1454 1450 1446 1440 1436 1434 1434 1432 1429 1427 1426 1426 1425 1423 1422 1421 1421 1423 1425 1427 1429 1431 1435 1439 1444 1449 1454 1457 1461 1465 1469 1474 1477 1480 1483 1487 1489 1492 1494 1496 1497
1449 1449 1449 1445 1438 1436 1433 1433 1431 1429 1426 1425 1424 1422 1420 1420 1419 1418 1417 1418 1420 1423 1425 1427 1430 1433 1438 1442 1447 1452 1455 1459 1462 1466 1470 1474 1477 1481 1484 1486 1489 1491 1493 1494
1440 1440 1443 1438 1431 1431 1429 1427 1426 1424 1422 1420 1419 1417 1415 1414 1415 1415 1415 1415 1418 1420 1423 1425 1429 1433 1437 1441 1445 1449 1453 1456 1460 1463 1466 1469 1473 1477 1480 1483 1485 1487 1489 1490